Theta_e
341 349 355 353 351 351 351 350 350 350 349 348 347 347 346 347 346 347 347 347 347 348 347 345 344 344 344 344 345 345 346 350 350 343 348 349 351 350 353 354 355 352 354
344 349 355 353 352 351 351 350 350 350 349 349 348 348 348 348 347 346 347 347 347 347 347 347 347 346 346 346 345 344 344 344 354 351 344 351 351 354 354 353 351 354 353
343 352 352 353 352 351 351 350 349 350 350 350 351 351 351 350 349 349 349 349 349 348 347 348 348 348 348 348 348 346 344 343 344 353 346 340 345 355 355 348 350 352 353
343 348 350 353 352 352 352 351 350 351 351 351 351 352 351 350 348 347 347 347 347 348 349 349 348 349 349 349 349 348 347 344 343 343 345 338 342 357 351 350 349 349 350
343 348 353 354 353 353 353 352 351 351 351 351 351 351 351 349 348 347 347 347 347 347 347 348 349 350 350 350 350 349 348 347 346 341 338 338 338 351 352 351 349 350 347
346 352 354 352 353 353 354 353 353 352 352 350 350 350 349 349 347 347 347 348 348 347 347 347 348 348 349 349 351 351 350 348 347 336 334 341 345 354 351 349 347 349 346
346 348 353 354 351 353 353 353 353 352 350 349 350 349 349 348 347 347 347 346 347 347 347 347 346 346 347 347 347 348 348 348 343 337 334 343 346 355 351 350 348 349 348
345 347 349 354 353 355 354 354 353 351 351 349 348 347 346 345 344 343 344 341 342 342 344 345 345 345 345 346 346 348 347 347 341 336 336 337 351 352 349 349 350 351 351
343 343 343 343 354 356 354 352 350 349 347 345 344 342 343 340 339 336 334 333 333 335 336 339 341 342 343 345 346 346 345 346 343 336 335 338 349 347 347 347 349 351 351
334 332 332 335 336 341 349 348 346 345 343 341 338 336 337 339 338 333 336 331 330 330 332 334 336 338 339 343 345 345 345 345 341 340 335 334 344 343 344 346 347 348 349
327 328 329 330 334 336 338 346 346 344 342 343 340 341 339 332 330 327 329 327 328 328 329 331 334 335 338 342 343 345 342 340 339 341 339 344 338 336 340 345 346 347 347
325 325 328 331 335 335 334 338 337 336 335 335 334 334 329 329 327 327 331 324 329 327 333 332 336 338 338 331 334 343 338 337 338 341 340 339 336 334 337 340 344 345 345
324 325 328 333 337 337 334 333 333 332 332 333 333 331 329 326 327 326 326 326 328 332 326 328 327 325 327 329 329 330 332 333 335 337 340 337 339 339 338 339 341 346 342
324 325 329 332 335 336 334 331 332 330 330 329 329 330 328 326 327 327 327 327 327 326 328 328 326 327 326 327 326 327 328 330 334 335 337 341 340 340 340 338 340 344 342
324 325 326 331 334 334 334 331 331 330 328 328 328 329 329 327 328 328 328 326 326 325 325 325 325 326 326 325 324 324 324 327 329 332 336 339 337 338 340 340 337 339 339
328 326 325 327 331 331 332 332 329 329 328 327 327 329 330 328 328 327 325 325 325 325 325 325 324 324 325 325 324 325 324 325 327 328 330 336 335 334 337 339 338 336 338
328 329 327 326 329 330 329 329 328 327 327 327 327 330 329 329 328 328 325 325 325 326 325 325 325 325 324 324 325 325 325 325 324 327 328 329 334 332 329 333 338 335 338
329 328 327 325 327 328 329 328 327 327 326 326 327 328 328 327 327 327 324 325 326 325 325 323 323 323 322 323 322 323 324 324 324 326 329 331 331 333 327 325 327 326 327
330 329 326 326 326 328 330 328 328 329 326 326 327 327 328 326 325 326 324 325 327 324 323 322 322 322 321 321 320 322 324 323 324 325 326 328 333 333 329 324 322 321 327
331 331 328 326 328 328 327 328 326 326 326 327 327 326 327 325 325 326 324 325 324 323 321 320 321 322 322 320 319 320 325 324 323 327 324 325 329 330 330 327 325 324 323
330 330 329 326 328 326 324 322 322 321 324 325 326 327 327 326 325 326 323 324 323 323 323 321 318 319 318 319 317 318 323 324 323 323 324 324 325 328 329 330 330 327 328
330 329 328 327 328 326 325 326 326 325 325 325 325 327 327 326 325 324 324 323 323 321 322 320 319 315 316 318 314 314 314 318 320 324 324 324 324 326 326 327 328 327 326
331 328 328 326 327 328 329 326 327 328 327 323 323 324 326 326 324 325 324 323 322 323 317 319 318 317 313 316 319 313 308 308 312 324 323 321 323 324 326 326 326 325 326
331 330 328 325 325 326 328 327 328 323 321 323 322 325 324 326 324 323 323 323 323 321 318 317 316 316 313 309 314 316 318 315 310 309 321 323 322 320 323 325 325 325 327
332 330 328 326 326 326 326 328 325 325 323 324 323 326 327 326 325 323 323 323 322 320 321 318 317 316 315 313 311 314 316 315 319 312 310 313 323 325 322 323 323 327 326
332 329 327 326 326 325 324 325 326 326 324 323 323 322 321 321 322 324 322 323 322 321 320 318 319 318 318 315 314 315 313 314 313 311 310 311 315 320 323 325 325 326 325
Wind_Speed
15 12 8 6 5 4 3 3 4 4 5 5 6 6 7 7 8 8 9 9 9 9 8 7 7 8 9 9 10 11 12 12 8 7 6 5 5 3 2 3 7 3 3
13 13 8 6 4 3 2 2 3 4 5 5 6 6 7 7 7 8 8 9 10 10 10 10 9 7 7 9 9 9 10 11 10 8 8 10 10 6 4 3 4 6 2
10 13 11 6 3 2 1 1 2 3 4 5 6 7 8 8 8 8 8 9 9 10 11 11 11 10 9 8 8 9 10 10 11 9 10 11 12 13 9 3 4 3 3
7 6 11 5 2 1 1 1 3 4 5 6 6 7 8 8 8 9 9 10 10 11 11 12 12 12 11 10 9 9 9 11 12 12 11 12 6 17 13 7 4 3 3
6 13 10 4 1 1 2 2 2 3 4 4 5 6 7 7 8 9 10 11 11 12 12 13 13 13 13 13 11 10 10 12 15 16 15 10 6 16 12 9 7 7 3
9 16 14 5 1 1 3 3 2 3 4 6 5 6 7 7 8 9 10 11 13 13 14 13 13 14 15 15 14 12 11 11 14 17 14 8 9 11 12 7 1 2 2
9 9 15 9 6 3 1 4 5 4 4 5 6 7 7 7 8 10 10 12 13 14 14 14 14 14 15 16 16 14 14 13 12 16 16 0 5 12 13 8 3 6 5
7 7 8 14 11 7 9 8 9 7 7 8 8 9 8 8 9 10 11 13 14 14 15 14 13 14 15 15 15 14 14 14 14 15 16 13 13 11 6 7 7 9 7
13 12 11 11 14 15 15 16 11 11 11 10 8 5 4 5 5 6 9 14 14 14 15 12 12 13 15 15 13 13 14 15 14 13 14 8 12 5 4 6 7 9 9
12 12 13 11 12 1 16 16 10 11 9 7 7 5 4 7 5 3 7 13 13 14 14 12 13 14 14 16 13 10 11 15 15 15 11 9 5 7 3 6 7 9 9
10 11 11 13 11 8 8 11 14 12 7 4 3 9 8 8 10 12 9 8 10 12 11 11 11 12 15 18 14 9 8 8 12 6 5 8 8 3 5 8 8 8 8
12 12 12 11 11 10 8 6 7 8 7 8 11 11 9 9 9 9 4 2 5 7 7 11 8 15 14 8 4 13 7 6 9 8 4 9 5 4 8 10 9 9 9
13 12 13 11 10 11 8 6 5 5 5 5 10 11 9 8 8 8 7 7 8 8 7 9 8 8 11 10 9 10 10 9 5 7 10 5 9 6 6 12 12 9 9
14 13 13 13 11 10 7 6 6 6 7 6 8 11 9 7 9 8 6 9 8 8 9 8 7 9 10 9 9 10 12 9 5 4 9 12 12 14 13 11 12 11 8
14 14 13 11 9 8 8 7 6 6 6 6 7 10 8 9 8 9 8 9 9 10 10 9 9 8 10 9 8 9 10 11 10 6 4 12 9 12 17 19 16 11 9
12 13 11 11 9 8 7 6 6 5 5 6 6 8 9 9 9 10 9 9 10 10 10 9 10 9 9 8 8 8 8 8 10 9 7 4 5 8 13 16 17 13 11
11 11 11 7 8 7 7 7 5 6 6 6 6 8 10 10 10 11 8 9 10 9 11 10 10 9 9 9 9 9 7 7 7 8 7 7 3 2 7 16 15 7 17
9 9 8 8 7 6 7 6 6 6 5 6 6 7 11 10 11 11 8 9 10 8 9 10 11 10 9 9 9 9 6 7 7 9 5 4 4 4 3 3 7 3 17
7 7 8 7 8 7 5 5 5 5 6 5 6 8 10 10 12 10 8 8 12 8 10 11 11 12 11 9 10 10 4 5 7 10 9 8 6 6 4 2 6 2 4
5 7 8 7 8 5 5 2 4 3 4 4 6 7 10 10 11 10 9 9 11 8 9 9 12 11 11 11 13 10 4 4 7 4 6 7 6 4 3 3 1 5 4
4 6 7 7 6 5 6 7 6 6 4 5 6 7 9 10 11 10 9 9 10 9 9 10 10 12 8 9 10 11 3 2 4 7 6 7 5 6 3 2 4 3 6
4 4 6 6 6 6 5 4 3 4 4 4 4 4 8 10 10 10 10 10 11 10 12 10 10 8 9 9 9 11 2 2 8 7 8 6 7 4 4 5 5 6 3
5 4 5 5 5 5 5 4 5 1 4 6 6 7 7 8 9 9 10 10 10 8 9 9 10 9 9 9 8 7 7 6 11 5 5 7 6 5 4 3 4 5 3
5 5 5 4 3 6 4 4 4 6 5 4 6 7 6 7 8 10 10 8 9 9 9 6 7 8 5 7 8 6 3 6 5 5 4 5 6 4 4 2 1 3 4
8 7 6 3 3 4 3 4 6 6 6 6 6 6 5 4 5 9 9 9 9 9 6 6 7 5 3 4 6 6 7 9 3 9 7 6 6 5 5 3 2 3 1
8 7 6 4 4 2 2 1 3 5 6 6 7 6 7 5 5 9 9 8 9 10 9 5 5 6 7 4 7 8 7 4 7 8 8 8 7 4 4 2 2 2 2
Wind_Direction
86 104 101 99 91 75 53 30 19 18 10 8 8 8 8 4 1 359 356 354 351 349 350 352 353 352 352 355 0 2 357 349 330 299 290 279 264 257 247 278 298 8 89
90 99 113 100 87 71 46 20 4 1 357 355 353 351 351 351 350 350 346 343 338 335 333 331 330 331 334 339 343 348 350 349 338 311 262 254 237 216 202 274 317 49 53
79 129 116 112 103 95 78 28 348 338 345 344 343 343 342 339 338 340 339 333 327 324 322 319 318 318 321 324 326 331 334 336 331 318 271 260 229 192 164 240 297 348 26
99 74 74 100 77 41 310 324 334 331 337 338 341 337 336 335 335 339 337 334 327 321 314 311 310 311 311 312 313 315 317 315 312 302 262 240 213 174 154 165 238 264 271
160 130 96 104 192 255 276 281 300 315 320 320 326 332 330 330 333 337 340 337 330 325 317 310 307 305 304 301 300 300 303 306 305 291 260 261 281 152 142 161 203 224 250
34 98 97 100 263 261 293 291 286 306 319 327 314 335 333 341 348 357 354 351 343 335 328 321 316 312 307 300 298 296 292 293 301 282 272 270 131 139 128 172 208 270 243
35 54 79 95 103 157 251 339 353 341 325 349 10 12 22 22 11 8 8 6 358 350 342 335 334 324 310 301 298 293 290 287 285 292 296 234 335 137 149 148 205 252 247
34 29 52 125 128 137 94 53 26 32 53 40 26 26 31 39 34 28 30 14 8 2 356 354 344 340 332 318 293 283 283 281 279 271 271 299 127 156 143 152 224 245 246
16 23 31 358 129 110 87 75 64 65 63 59 52 46 51 79 65 50 26 19 360 354 347 345 342 335 326 318 301 281 276 275 277 272 283 290 96 72 186 186 210 244 249
30 17 12 10 9 254 105 94 96 95 96 94 76 1 260 197 50 50 41 21 354 350 338 335 331 328 317 301 292 274 274 273 263 261 269 272 203 127 240 217 220 239 248
27 26 19 8 358 358 41 120 154 125 135 126 61 7 316 5 3 333 66 16 353 353 344 343 319 307 290 271 245 240 249 262 263 286 308 191 152 143 224 240 221 223 235
29 21 16 19 359 3 24 33 49 63 68 36 21 359 6 349 10 316 2 109 342 3 340 331 304 293 268 343 284 206 248 296 301 272 260 33 329 181 238 242 236 224 231
40 25 20 32 22 7 42 15 24 43 25 36 38 359 12 353 360 356 355 0 354 14 7 350 352 358 345 340 326 324 319 306 343 324 313 151 243 248 260 247 240 223 230
36 27 34 35 27 34 4 29 34 48 4 28 21 15 7 1 355 353 1 344 351 355 351 349 344 348 337 325 324 311 314 321 328 296 309 315 289 263 250 258 248 224 209
34 28 30 37 30 25 25 14 32 3 37 5 30 27 10 352 359 345 349 347 352 344 348 342 341 339 329 332 328 332 320 311 301 294 309 305 319 315 259 246 252 253 226
34 28 29 31 32 27 37 20 2 17 21 23 37 25 12 355 5 343 348 350 356 340 341 343 348 330 325 331 330 328 306 300 302 315 309 289 296 329 337 264 243 241 238
63 33 10 36 47 21 22 352 38 21 26 20 20 47 358 9 4 332 356 355 357 333 338 349 340 336 334 329 322 319 316 331 311 298 289 302 308 199 22 1 264 296 312
48 45 34 12 25 55 7 28 27 24 14 24 15 24 358 6 9 330 8 7 337 343 360 354 350 347 336 329 343 314 337 331 343 275 325 310 331 312 312 344 323 273 337
70 41 37 47 33 9 53 359 21 40 24 23 21 21 5 5 7 342 16 3 329 7 15 358 347 339 328 346 332 302 348 333 333 20 7 351 316 283 345 44 286 267 39
78 58 46 33 34 18 13 16 40 63 23 31 43 21 11 4 10 1 1 1 341 7 17 1 338 344 319 358 325 326 322 10 357 353 340 9 18 299 318 8 309 225 108
102 67 41 48 37 11 33 16 12 3 30 9 31 18 11 4 11 10 357 0 354 352 29 10 348 345 357 1 326 326 85 105 14 4 333 2 45 27 17 307 244 209 209
108 65 56 35 38 22 39 24 3 350 348 334 31 29 25 6 12 9 359 7 350 331 27 8 356 348 337 12 356 315 348 143 28 355 -0 352 356 3 29 51 38 84 93
154 109 81 53 52 40 4 31 356 306 258 16 350 31 9 15 13 13 6 22 338 341 14 356 5 13 350 357 354 6 344 8 333 4 339 332 334 350 9 59 66 86 76
171 138 130 75 28 88 23 41 347 330 3 351 348 30 343 28 16 9 8 15 9 338 36 358 3 346 9 341 344 349 291 261 326 326 291 303 297 303 334 318 119 131 142
154 174 130 128 97 70 68 1 325 9 346 356 358 337 350 38 33 17 9 0 10 355 46 33 347 351 330 337 340 336 335 318 296 326 341 327 324 306 318 318 351 345 98
156 173 138 151 128 87 0 6 349 338 348 340 6 316 346 358 12 37 2 3 10 356 16 22 355 354 1 4 334 329 337 342 334 322 322 338 323 295 240 206 300 277 275